Weather in Khoteyeva

Russia / Bryansk Oblast     52°46′09″N   34°50′34″E
temp.,
°C
wind,
m/s
gust,
m/s
humid.,
%
clouds,
%
prec.,
mm/h
press.,
hPa
HPBL,
m
13 may, thu
thu1300:00+6e349610 0.0 101576
03:00+6ese4109599 0.1 1014266
06:00+8se6139169 0.1 1014609
09:00+11se698034 0.4 1013961
12:00+13sse796688 1.1 10131694
15:00+14s796299 1.7 10131781
18:00+13s5870100 0.1 10131063
21:00+9sse228514 0.1 101415
14 may, fri
fri1400:00+8se3590100 0.0 101480
03:00+8se3787100 0.0 1014116
06:00+9ese3885100 0.0 1013154
09:00+14ese4781100 0.0 1012316
12:00+18se588086 1.8 1011558
15:00+20sse697295 5.0 10091213
18:00+19sse610815 1.9 1008779
21:00+15sse5139074 5.5 1008285
15 may, sat
sat1500:00+13sse36945 0.0 100895
03:00+12s49944 0.0 1008168
06:00+11ssw4109669 0.0 1009317
09:00+15ssw588082 0.0 1010573
12:00+19ssw576412 0.0 10101369
15:00+20s575819 0.6 10101784
18:00+17s587894 1.4 1010476
21:00+13s41092100 3.1 1011221
16 may, sun
sun1600:00+11ssw39960 0.0 1012242
03:00+9ssw35962 0.0 1014104
06:00+10ssw35941 0.0 1015113
09:00+15sw23770 0.0 1015428
12:00+19s23634 0.0 10151112
15:00+21sse335823 0.0 10141474
18:00+20se236737 0.0 1013491
21:00+15e228020 0.0 101315
17 may, mon
mon1700:00+13ene47855 0.0 1013105
03:00+13ene4128871 0.0 1012224
06:00+14ene512919 0.1 1010276
09:00+19e6137839 0.1 1009507
12:00+23ese7126599 0.0 1008864
15:00+25ese814615 0.0 10071675
18:00+23ese8146883 0.0 1006960
21:00+19ese616775 0.0 1006524